Location: Central Falls
(41.8900°N, 71.3929°W)
Time: 03:23:52
(UTC+00:00)

Tiros 1 - Pass Details

Date: 12 December 2023
Orbit: 625 x 658 km, 48.4° (Epoch: 01 March)

Event Time Altitude Azimuth Distance (km) Brightness Sun altitude
Rises 07:10:30 0° 252° (WSW) 2,959 - -53.4°
Reaches altitude 10° 07:12:51 10° 255° (WSW) 2,055 - -52.9°
Maximum altitude 07:17:34 65° 337° (NNW) 723 - -52.1°
Drops below altitude 10° 07:22:20 10° 60° (ENE) 2,074 - -51.3°
Sets 07:24:42 0° 63° (ENE) 2,989 - -50.8°
